[[{"header":{"parameterUnit":"m.s-1","parameterCategory":1,"la1":30.2991,"la2":30.254,"lo1":-89.0895,"lo2":-89.0444,"dy":0.0017,"dx":0.0017,"nx":28,"ny":28,"refTime":"2024-07-02T21:00:00:Z","depth":0,"parameterNumber":2,"parameterNumberName":"U-component_of_WINDS"},"data":[0,0,0,0,0,0,0,0,0,0,0,0,0,0,0,0,0,0,0,0,0,0,0,0,0,0,0,0,0,0,0,0,0,0,0,0,0,0,0,0,0,0,0,0,0,0,0,0,0,0,0,0,0,0,0,0,0,0,0.9134,0.9134,0,0.9175,0.9175,0.9176,0.9159,0.9158,0.9157,0.9156,0.9199,0.9201,0.9203,0,0,0,0,0,0,0,0,0,0,0,0,0,0.904,0.9042,0.9134,0.9134,0.9135,0.9175,0.9175,0.9176,0.9159,0.9158,0.9157,0.9156,0.9198,0.9201,0.9203,0,0,0,0,0,0,0,0,0,0,0,0,0,0.9081,0.9042,0.9133,0.9131,0.9131,0.9174,0.9175,0.9176,0.9159,0.9158,0.9157,0.9155,0.9197,0.92,0.9203,0.9252,0,0,0.9213,0.9214,0,0,0,0,0,0,0,0,0.9079,0.9084,0.9131,0.9131,0.9132,0.916,0.9158,0.9201,0.916,0.9149,0.9156,0.9154,0.9187,0.9191,0.9202,0.9254,0.9255,0.9213,0.9215,0.9216,0.9217,0,0,0,0,0,0,0,0.9076,0.9082,0.915,0.9132,0.9132,0.9128,0.9132,0.9166,0.9176,0.915,0.9149,0.9154,0.9187,0.9199,0.9203,0.9256,0.9213,0.9216,0.9218,0.9219,0.9347,0.9349,0,0,0,0,0,0,0.9073,0.908,0.9149,0.9151,0.9101,0.9131,0.9135,0.9153,0.9175,0.9177,0.9155,0.9153,0.9195,0.9199,0.9204,0.9261,0.9216,0.9219,0.9221,0.9346,0.9348,0.9349,0,0,0,0,0,0,0.9071,0.9079,0.9147,0.9115,0.9124,0.9134,0.9153,0.9154,0.9166,0.9179,0.9181,0.9165,0.9194,0.92,0.924,0.9262,0.9221,0.9223,0.9344,0.9346,0.9349,0.9376,0,0,0,0,0,0,0.9068,0.9079,0.9097,0.9116,0.9125,0.9182,0.9155,0.9156,0.9171,0.9169,0.9189,0.9191,0.9193,0.9235,0.9243,0.9266,0.9226,0.9342,0.9345,0.9348,0.9373,0.9379,0.9384,0,0,0,0,0,0.9065,0.9104,0.9098,0.9107,0.9149,0.9183,0.9188,0.9189,0.9173,0.9192,0.92,0.9191,0.9259,0.9239,0.9248,0.9272,0.9341,0.9344,0.9348,0.937,0.9377,0.9383,0,0,0,0,0,0,0.9088,0.9106,0.91,0.9146,0.9163,0.918,0.9204,0.9197,0.9219,0.9216,0.9216,0.9221,0.9261,0.9271,0.9249,0.9319,0.9297,0.9302,0.9311,0.9318,0.9324,0.9321,0.9228,0,0,0,0,0,0.9098,0.9124,0.9139,0.9178,0.9187,0.9194,0.9209,0.9208,0.9225,0.9232,0.9244,0.9261,0.9286,0.9303,0.9327,0.9374,0.9377,0.9395,0.94,0.9405,0.9409,0.9433,0.9441,0.9361,0.9361,0.9361,0,0,0.912,0.9133,0.915,0.9183,0.9196,0.9222,0.92,0.923,0.9249,0.9237,0.9275,0.9283,0.9303,0.9346,0.9365,0.9355,0.9432,0.9409,0.9412,0.9415,0.9438,0.9445,0.9452,0.9363,0.9363,0.9363,0,0,0.9173,0.9186,0.9219,0.9232,0.9252,0.9256,0.9264,0.9282,0.9287,0.9325,0.9316,0.9339,0.9383,0.9396,0.9409,0.9466,0.9458,0.9474,0.9502,0.9526,0.9532,0.9537,0.9557,0.9564,0.9478,0.9478,0.9478,0,0.9197,0.9237,0.9237,0.9267,0.9281,0.9271,0.9304,0.9317,0.9344,0.9354,0.9341,0.9395,0.9407,0.9453,0.9466,0.9477,0.9486,0.9471,0.9531,0.9537,0.9542,0.956,0.9567,0.948,0.948,0.948,0.9479,0,0.9266,0.9294,0.9318,0.9344,0.9361,0.9392,0.9396,0.9413,0.9411,0.9416,0.9454,0.9468,0.9494,0.9505,0.9503,0.955,0.9542,0.9531,0.9509,0.9551,0.9568,0.9575,0.9482,0.9482,0.9481,0.9481,0,0,0.9335,0.9359,0.9368,0.9379,0.9399,0.942,0.9451,0.9476,0.949,0.9509,0.9534,0.957,0.9559,0.9573,0.9572,0.9593,0.9636,0.9579,0.9579,0.9588,0.9687,0.9695,0.9703,0.963,0.9632,0.9633,0.9685,0,0.9389,0.9443,0.9443,0.9492,0.9517,0.9507,0.9533,0.9548,0.9554,0.9575,0.9581,0.9607,0.9591,0.9599,0.9619,0.9626,0.9655,0.9623,0.9653,0.9654,0.9648,0.9713,0.9722,0.9771,0.9692,0.9693,0.9694,0,0.9459,0.9479,0.9531,0.9546,0.9557,0.9581,0.9603,0.9624,0.964,0.9643,0.9658,0.9654,0.9684,0.9661,0.9702,0.968,0.9692,0.9698,0.97,0.9702,0.9677,0.9716,0.9786,0.9793,0.9705,0.9704,0.9703,0,0.9503,0.9543,0.9579,0.9589,0.9608,0.9625,0.9633,0.9648,0.9663,0.9682,0.9691,0.9714,0.9726,0.9744,0.9745,0.9729,0.9787,0.9764,0.9789,0.9789,0.9802,0.9801,0.9874,0.9811,0.981,0.981,0.981,0,0.9563,0.9595,0.9599,0.9621,0.9656,0.9655,0.9689,0.9697,0.971,0.9732,0.9725,0.9747,0.9748,0.9769,0.9771,0.9804,0.981,0.9812,0.9812,0.9813,0.9812,0.9821,0.9817,0.9812,0.9812,0.9811,0.9811,0,0.9619,0.9622,0.966,0.9675,0.9679,0.9704,0.9717,0.9737,0.9742,0.977,0.9777,0.9784,0.9809,0.9812,0.9842,0.9842,0.9882,0.9879,0.9877,0.9876,0.99,0.9898,0.9981,0.9991,0.9922,0.9923,0.9923,0,0.9656,0.968,0.9697,0.9712,0.9721,0.9745,0.9759,0.9759,0.9775,0.9794,0.9812,0.9837,0.9856,0.9896,0.9904,0.9926,0.9923,0.995,0.9926,0.9925,0.9922,0.992,0.9922,0.9955,0.9956,0.9956,0.9957,0,0.9723,0.9723,0.9744,0.9766,0.9783,0.98,0.9816,0.9829,0.983,0.9848,0.9873,0.9888,0.9917,0.9941,0.9963,0.9971,0.9964,0.9964,0.9971,0.9971,0.9969,0.997,0.9889,0.9962,0.9962,0.9961,0.9961,0.9961,0.977,0.979,0.9805,0.9828,0.984,0.9855,0.9875,0.9881,0.9902,0.9926,0.9924,0.9952,0.9967,0.9995,1.0005,1.0026,1.0017,1.0027,1.0029,1.0032,1.0033,0.9966,1.003,1.003,1.003,1.0029,1.0029,0,0.9835,0.9843,0.9865,0.9887,0.9906,0.9897,0.9914,0.993,0.9954,0.9968,0.9987,1.0015,1.0038,1.0047,1.0069,1.0084,1.0081,1.0089,1.0088,1.009,1.0041,1.0032,1.0091,1.0091,1.0091,1.0091,1.0091,1.0091,0.9871,0.9904,0.9906,0.9945,0.9954,0.9981,0.9991,1.0004,1.0015,1.0047,1.0066,1.0071,1.0083,1.0105,1.0125,1.0127,1.0135,1.0145,1.0146,1.01,1.0094,1.0088,1.008,1.0147,1.0147,1.0193,1.0193,1.0194]},{"header":{"parameterUnit":"m.s-1","parameterCategory":1,"la1":30.2991,"la2":30.254,"lo1":-89.0895,"lo2":-89.0444,"dy":0.0017,"dx":0.0017,"nx":28,"ny":28,"refTime":"2024-07-02T21:00:00:Z","depth":0,"parameterNumber":3,"parameterNumberName":"V-component_of_WINDS"},"data":[0,0,0,0,0,0,0,0,0,0,0,0,0,0,0,0,0,0,0,0,0,0,0,0,0,0,0,0,0,0,0,0,0,0,0,0,0,0,0,0,0,0,0,0,0,0,0,0,0,0,0,0,0,0,0,0,0,0,4.8138,4.8138,0,4.8093,4.8092,4.8092,4.8067,4.8067,4.8067,4.8067,4.8015,4.8014,4.8013,0,0,0,0,0,0,0,0,0,0,0,0,0,4.82,4.8199,4.8138,4.8138,4.8137,4.8093,4.8092,4.8091,4.8067,4.8067,4.8067,4.8067,4.8016,4.8014,4.8013,0,0,0,0,0,0,0,0,0,0,0,0,0,4.8166,4.8199,4.8139,4.812,4.8118,4.8093,4.8092,4.8091,4.8067,4.8067,4.8067,4.8067,4.8016,4.8014,4.8012,4.8001,0,0,4.8006,4.8005,0,0,0,0,0,0,0,0,4.8168,4.8164,4.8123,4.8121,4.8119,4.8086,4.8095,4.8061,4.8067,4.8086,4.8067,4.8067,4.8038,4.8035,4.8026,4.7999,4.7997,4.8006,4.8005,4.8004,4.8003,0,0,0,0,0,0,0,4.817,4.8165,4.812,4.8123,4.812,4.8112,4.8107,4.8088,4.8063,4.8084,4.8082,4.8078,4.8037,4.8028,4.8025,4.7996,4.8006,4.8004,4.8003,4.8002,4.7957,4.7957,0,0,0,0,0,0,4.8176,4.8168,4.8122,4.8119,4.8144,4.8111,4.8106,4.8096,4.8063,4.8058,4.8078,4.8077,4.8031,4.8027,4.8023,4.8007,4.8004,4.8002,4.8001,4.7957,4.7957,4.7957,0,0,0,0,0,0,4.8178,4.8172,4.8123,4.8143,4.8136,4.811,4.81,4.8095,4.8086,4.8058,4.8053,4.8073,4.8031,4.8025,4.8007,4.8005,4.8001,4.7999,4.7957,4.7957,4.7957,4.7977,0,0,0,0,0,0,4.818,4.8173,4.817,4.8143,4.8135,4.811,4.81,4.8094,4.8083,4.8081,4.8053,4.8048,4.8031,4.801,4.8005,4.8002,4.7998,4.7957,4.7957,4.7957,4.7976,4.7978,4.7979,0,0,0,0,0,4.8182,4.8176,4.817,4.8164,4.813,4.811,4.8105,4.8087,4.8083,4.8079,4.8061,4.8049,4.8007,4.8009,4.8003,4.7999,4.7957,4.7957,4.7957,4.7976,4.7978,4.7979,0,0,0,0,0,0,4.8202,4.8172,4.8165,4.8151,4.8133,4.8106,4.81,4.8089,4.8071,4.807,4.8047,4.8041,4.8024,4.801,4.8013,4.7987,4.798,4.7979,4.7997,4.7998,4.7999,4.8003,4.7996,0,0,0,0,0,4.8205,4.8192,4.8167,4.8156,4.8148,4.8126,4.8116,4.8104,4.8084,4.8076,4.8057,4.8037,4.8019,4.8008,4.799,4.7974,4.7967,4.7969,4.797,4.7972,4.7971,4.7961,4.7961,4.7957,4.7957,4.7957,0,0,4.821,4.8193,4.8186,4.816,4.8145,4.8131,4.812,4.8105,4.8094,4.8073,4.8055,4.804,4.8017,4.8,4.7991,4.7987,4.797,4.7972,4.7973,4.7971,4.7961,4.7961,4.7962,4.7957,4.7957,4.7957,0,0,4.8214,4.8199,4.8189,4.8175,4.8153,4.8138,4.8136,4.811,4.81,4.8082,4.8066,4.8052,4.8022,4.8005,4.7993,4.7991,4.7978,4.7985,4.7991,4.7982,4.7982,4.7983,4.7981,4.7981,4.7984,4.7985,4.7985,0,4.8223,4.8203,4.8185,4.8172,4.8161,4.8143,4.8132,4.8118,4.8091,4.8083,4.8079,4.8041,4.8024,4.8003,4.8002,4.7993,4.7989,4.7988,4.7984,4.7984,4.7984,4.7982,4.7982,4.7985,4.7985,4.7985,4.7985,0,4.8215,4.8201,4.8195,4.8171,4.8159,4.8147,4.8127,4.8116,4.8105,4.809,4.8071,4.805,4.8027,4.8022,4.801,4.7998,4.7997,4.7989,4.7982,4.7986,4.7983,4.7983,4.7987,4.7987,4.7986,4.7986,0,0,4.8229,4.8196,4.8194,4.8183,4.8158,4.8146,4.8132,4.8112,4.8103,4.8085,4.8073,4.8048,4.8041,4.8027,4.8013,4.8005,4.8003,4.7998,4.7997,4.7999,4.7989,4.7995,4.7995,4.7996,4.7995,4.7995,4.7991,0,4.8228,4.8205,4.8189,4.8171,4.8158,4.8141,4.8129,4.8112,4.8097,4.8083,4.8066,4.8049,4.8041,4.8033,4.8024,4.8006,4.8001,4.8006,4.7982,4.7982,4.7989,4.7993,4.7999,4.7996,4.799,4.799,4.799,0,4.8224,4.8208,4.819,4.8166,4.816,4.815,4.813,4.8116,4.8096,4.8086,4.8071,4.8057,4.804,4.8036,4.8012,4.8016,4.8005,4.7995,4.7994,4.7991,4.7986,4.799,4.7995,4.7995,4.7988,4.7989,4.7989,0,4.8235,4.8209,4.8195,4.8186,4.8158,4.8151,4.8139,4.8118,4.8107,4.8089,4.8081,4.8061,4.8049,4.8033,4.8014,4.8012,4.7992,4.7986,4.7982,4.7983,4.7978,4.7979,4.7982,4.7973,4.7973,4.7973,4.7973,0,4.8236,4.8225,4.82,4.8191,4.8178,4.8159,4.8147,4.8133,4.8115,4.8102,4.8085,4.8073,4.8048,4.8033,4.8017,4.8,4.7995,4.7985,4.7981,4.7986,4.7988,4.7979,4.7978,4.7972,4.7972,4.7972,4.7972,0,4.8246,4.8229,4.8212,4.8188,4.8181,4.8173,4.8151,4.8141,4.8126,4.811,4.8105,4.8081,4.8062,4.8041,4.8014,4.8004,4.7987,4.7982,4.7995,4.7992,4.799,4.799,4.7987,4.7985,4.7978,4.7978,4.7978,0,4.8247,4.8239,4.8214,4.8205,4.8194,4.8179,4.8168,4.8149,4.8137,4.8114,4.8106,4.8086,4.8069,4.8039,4.8018,4.7998,4.7991,4.7991,4.7988,4.7994,4.799,4.7991,4.799,4.7992,4.7992,4.7993,4.7993,0,4.8251,4.8243,4.8229,4.8211,4.8199,4.8183,4.8167,4.816,4.8137,4.8125,4.8107,4.8094,4.8067,4.8047,4.8024,4.801,4.7997,4.7994,4.7992,4.7997,4.8005,4.8001,4.7997,4.7994,4.7994,4.7994,4.7994,4.7994,4.8257,4.8249,4.823,4.8214,4.82,4.8186,4.8175,4.816,4.8144,4.8122,4.8111,4.8093,4.8071,4.8039,4.8026,4.8009,4.8005,4.8003,4.8002,4.8001,4.8003,4.8009,4.8005,4.8005,4.8005,4.8005,4.8005,0,4.8259,4.8247,4.8232,4.8211,4.8199,4.819,4.8171,4.8161,4.8145,4.8127,4.8111,4.8089,4.807,4.8048,4.8027,4.8018,4.8012,4.8013,4.8013,4.801,4.8008,4.8011,4.8019,4.8019,4.8019,4.8019,4.8019,4.8019,4.8259,4.8245,4.8235,4.8213,4.82,4.8183,4.8173,4.8159,4.8145,4.8122,4.8106,4.8092,4.8073,4.805,4.8031,4.8025,4.8018,4.8021,4.8013,4.8011,4.801,4.8009,4.8012,4.802,4.802,4.8016,4.8016,4.8016]}]]